User: anonymous   Login
Location: Unspecified
(0.0000°N, 0.0000°E)
Time: 04:47:09
(UTC+00:00)
Language:

CRRES - Orbit

View from above orbital plane
View from above orbital plane
View from above satellite
View from above satellite

Ground track
Ground track

The orbit data is extracted from the following two-line orbital elements,

1 20712U 90065A   18292.48858190 +.00000281 +00000-0 +15810-3 0  9996
2 20712 018.1076 064.8614 7103071 220.9214 055.2067 02.46162177240428
Epoch (UTC): 19 October 2018 11:43:33
Eccentricity: 0.7103071
inclination: 18.1076°
perigee height: 334 km
apogee height: 33249 km
right ascension of ascending node: 64.8614°
argument of perigee: 220.9214°
revolutions per day: 2.46162177
mean anomaly at epoch: 55.2067°
orbit number at epoch: 24042

The dashed part of the orbit path shows where the satellite is in the earth's shadow,  

DLR